Time,TemperatureF,DewpointF,PressureIn,WindDirection,WindDirectionDegrees,WindSpeedMPH,WindSpeedGustMPH,Humidity,HourlyPrecipIn,Conditions,Clouds,dailyrainin,SolarRadiationWatts/m^2,SoftwareType,DateUTC
2013-01-08 00:00:00,51.6,39.4,30.24,NNE,32,5.8,5.8,63,0.00,CLR,FEW,0.00,0.0,WeatherDisplay:10.37,2013-01-07 23:00:00,
2013-01-08 00:05:00,51.4,39.2,30.24,East,86,6.9,6.9,63,0.00,CLR,FEW,0.00,0.0,WeatherDisplay:10.37,2013-01-07 23:05:00,
2013-01-08 00:10:00,51.4,40.0,30.24,NE,44,5.8,5.8,65,0.00,CLR,FEW,0.00,0.0,WeatherDisplay:10.37,2013-01-07 23:10:00,
2013-01-08 00:15:00,51.3,40.3,30.24,NE,51,4.0,4.0,66,0.00,CLR,FEW,0.00,0.0,WeatherDisplay:10.37,2013-01-07 23:15:00,
2013-01-08 00:20:00,51.2,40.6,30.24,ENE,59,4.6,4.6,67,0.00,CLR,FEW,0.00,0.0,WeatherDisplay:10.37,2013-01-07 23:20:00,
2013-01-08 00:25:00,51.2,40.6,30.24,ENE,74,7.0,7.0,67,0.00,CLR,FEW,0.00,0.0,WeatherDisplay:10.37,2013-01-07 23:25:00,
2013-01-08 00:30:00,51.3,40.7,30.23,NE,38,8.1,8.1,67,0.00,CLR,FEW,0.00,0.0,WeatherDisplay:10.37,2013-01-07 23:30:00,
2013-01-08 00:35:00,51.3,40.7,30.23,ENE,71,3.5,3.5,67,0.00,CLR,FEW,0.00,0.0,WeatherDisplay:10.37,2013-01-07 23:35:00,
2013-01-08 00:40:00,51.2,39.8,30.22,ENE,77,3.5,3.5,65,0.00,CLR,FEW,0.00,0.0,WeatherDisplay:10.37,2013-01-07 23:40:00,
2013-01-08 00:45:00,51.1,39.3,30.22,East,85,3.5,3.5,64,0.00,CLR,FEW,0.00,0.0,WeatherDisplay:10.37,2013-01-07 23:45:00,
2013-01-08 00:50:00,51.0,38.8,30.22,East,84,4.0,4.0,63,0.00,CLR,FEW,0.00,0.0,WeatherDisplay:10.37,2013-01-07 23:50:00,
2013-01-08 00:55:00,51.1,38.5,30.22,ENE,73,3.5,3.5,62,0.00,CLR,FEW,0.00,0.0,WeatherDisplay:10.37,2013-01-07 23:55:00,
2013-01-08 01:00:00,51.1,38.5,30.22,ENE,73,4.6,4.6,62,0.00,CLR,FEW,0.00,0.0,WeatherDisplay:10.37,2013-01-08 00:00:00,
2013-01-08 01:05:00,51.3,38.3,30.22,ENE,69,3.5,3.5,61,0.00,CLR,FEW,0.00,0.0,WeatherDisplay:10.37,2013-01-08 00:05:00,
2013-01-08 01:10:00,51.3,37.9,30.23,NE,45,5.8,5.8,60,0.00,CLR,FEW,0.00,0.0,WeatherDisplay:10.37,2013-01-08 00:10:00,
2013-01-08 01:15:00,51.2,37.8,30.23,ENE,57,3.5,3.5,60,0.00,CLR,FEW,0.00,0.0,WeatherDisplay:10.37,2013-01-08 00:15:00,
2013-01-08 01:20:00,51.1,37.7,30.23,NE,55,3.5,3.5,60,0.00,CLR,FEW,0.00,0.0,WeatherDisplay:10.37,2013-01-08 00:20:00,
2013-01-08 01:25:00,50.9,37.9,30.23,NE,55,3.5,3.5,61,0.00,CLR,FEW,0.00,0.0,WeatherDisplay:10.37,2013-01-08 00:25:00,
2013-01-08 01:30:00,50.7,37.7,30.23,ENE,57,3.5,3.5,61,0.00,CLR,FEW,0.00,0.0,WeatherDisplay:10.37,2013-01-08 00:30:00,
2013-01-08 01:35:00,50.7,37.7,30.23,ENE,59,3.5,3.5,61,0.00,CLR,FEW,0.00,0.0,WeatherDisplay:10.37,2013-01-08 00:35:00,
2013-01-08 01:40:00,50.7,37.7,30.23,ENE,60,4.0,4.0,61,0.00,CLR,FEW,0.00,0.0,WeatherDisplay:10.37,2013-01-08 00:40:00,
2013-01-08 01:45:00,50.9,37.9,30.23,ENE,61,3.5,3.5,61,0.00,CLR,FEW,0.00,0.0,WeatherDisplay:10.37,2013-01-08 00:45:00,
2013-01-08 01:50:00,50.9,37.9,30.23,East,84,3.5,3.5,61,0.00,CLR,FEW,0.00,0.0,WeatherDisplay:10.37,2013-01-08 00:50:00,
2013-01-08 01:55:00,51.0,37.6,30.23,East,84,3.0,3.0,60,0.00,CLR,FEW,0.00,0.0,WeatherDisplay:10.37,2013-01-08 00:55:00,
2013-01-08 02:00:00,50.9,37.5,30.24,ENE,65,3.5,3.5,60,0.00,CLR,FEW,0.00,0.0,WeatherDisplay:10.37,2013-01-08 01:00:00,
2013-01-08 02:05:00,50.8,37.4,30.24,ENE,65,3.0,3.0,60,0.00,CLR,FEW,0.00,0.0,WeatherDisplay:10.37,2013-01-08 01:05:00,
2013-01-08 02:10:00,50.6,37.6,30.24,NE,48,6.9,6.9,61,0.00,CLR,FEW,0.00,0.0,WeatherDisplay:10.37,2013-01-08 01:10:00,
2013-01-08 02:15:00,50.6,37.6,30.24,NE,47,4.6,4.6,61,0.00,CLR,FEW,0.00,0.0,WeatherDisplay:10.37,2013-01-08 01:15:00,
2013-01-08 02:20:00,50.6,37.6,30.24,NE,55,8.1,8.1,61,0.00,CLR,FEW,0.00,0.0,WeatherDisplay:10.37,2013-01-08 01:20:00,
2013-01-08 02:25:00,50.7,37.7,30.24,ENE,61,10.4,10.4,61,0.00,CLR,FEW,0.00,0.0,WeatherDisplay:10.37,2013-01-08 01:25:00,
2013-01-08 02:30:00,50.7,37.7,30.24,ENE,74,5.8,5.8,61,0.00,CLR,FEW,0.00,0.0,WeatherDisplay:10.37,2013-01-08 01:30:00,
2013-01-08 02:35:00,50.8,37.8,30.24,NE,55,6.9,6.9,61,0.00,CLR,FEW,0.00,0.0,WeatherDisplay:10.37,2013-01-08 01:35:00,
2013-01-08 02:40:00,50.9,37.9,30.24,ENE,68,6.9,6.9,61,0.00,CLR,FEW,0.00,0.0,WeatherDisplay:10.37,2013-01-08 01:40:00,
2013-01-08 02:45:00,50.9,38.3,30.24,NE,41,9.2,9.2,62,0.00,CLR,FEW,0.00,0.0,WeatherDisplay:10.37,2013-01-08 01:45:00,
2013-01-08 02:50:00,50.9,37.9,30.24,ENE,61,10.0,10.0,61,0.00,CLR,FEW,0.00,0.0,WeatherDisplay:10.37,2013-01-08 01:50:00,
2013-01-08 02:55:00,50.8,37.8,30.25,NNE,31,5.8,5.8,61,0.00,CLR,FEW,0.00,0.0,WeatherDisplay:10.37,2013-01-08 01:55:00,
2013-01-08 03:00:00,50.7,37.7,30.25,ENE,66,8.1,8.1,61,0.00,CLR,FEW,0.00,0.0,WeatherDisplay:10.37,2013-01-08 02:00:00,
2013-01-08 03:05:00,50.6,37.6,30.25,NE,51,5.8,5.8,61,0.00,CLR,FEW,0.00,0.0,WeatherDisplay:10.37,2013-01-08 02:05:00,
2013-01-08 03:10:00,50.6,37.6,30.24,ENE,78,8.1,8.1,61,0.00,CLR,FEW,0.00,0.0,WeatherDisplay:10.37,2013-01-08 02:10:00,
2013-01-08 03:15:00,50.6,37.6,30.25,NE,52,6.9,6.9,61,0.00,CLR,FEW,0.00,0.0,WeatherDisplay:10.37,2013-01-08 02:15:00,
2013-01-08 03:20:00,50.6,37.6,30.24,East,82,3.5,3.5,61,0.00,CLR,FEW,0.00,0.0,WeatherDisplay:10.37,2013-01-08 02:20:00,
2013-01-08 03:25:00,50.4,37.4,30.24,NE,44,6.9,6.9,61,0.00,CLR,FEW,0.00,0.0,WeatherDisplay:10.37,2013-01-08 02:25:00,
2013-01-08 03:30:00,50.3,37.4,30.24,ENE,69,6.9,6.9,61,0.00,CLR,FEW,0.00,0.0,WeatherDisplay:10.37,2013-01-08 02:30:00,
2013-01-08 03:35:00,50.5,38.0,30.24,East,82,4.6,4.6,62,0.00,CLR,FEW,0.00,0.0,WeatherDisplay:10.37,2013-01-08 02:35:00,
2013-01-08 03:40:00,50.5,37.5,30.24,East,83,3.5,3.5,61,0.00,CLR,FEW,0.00,0.0,WeatherDisplay:10.37,2013-01-08 02:40:00,
2013-01-08 03:45:00,50.4,37.4,30.24,East,82,4.6,4.6,61,0.00,CLR,FEW,0.00,0.0,WeatherDisplay:10.37,2013-01-08 02:45:00,
2013-01-08 03:50:00,50.2,37.3,30.23,ENE,64,4.6,4.6,61,0.00,CLR,FEW,0.00,0.0,WeatherDisplay:10.37,2013-01-08 02:50:00,
2013-01-08 03:55:00,50.2,36.8,30.23,ENE,70,3.5,3.5,60,0.00,CLR,FEW,0.00,0.0,WeatherDisplay:10.37,2013-01-08 02:55:00,
2013-01-08 04:00:00,50.2,36.8,30.23,ENE,68,3.5,3.5,60,0.00,CLR,FEW,0.00,0.0,WeatherDisplay:10.37,2013-01-08 03:00:00,
2013-01-08 04:05:00,50.2,36.8,30.23,ENE,68,3.5,3.5,60,0.00,CLR,FEW,0.00,0.0,WeatherDisplay:10.37,2013-01-08 03:05:00,
2013-01-08 04:10:00,50.0,37.1,30.23,ENE,68,3.0,3.0,61,0.00,CLR,FEW,0.00,0.0,WeatherDisplay:10.37,2013-01-08 03:10:00,
2013-01-08 04:15:00,50.1,36.7,30.23,ENE,67,5.8,5.8,60,0.00,CLR,FEW,0.00,0.0,WeatherDisplay:10.37,2013-01-08 03:15:00,
2013-01-08 04:20:00,50.2,36.8,30.23,ENE,61,4.6,4.6,60,0.00,CLR,FEW,0.00,0.0,WeatherDisplay:10.37,2013-01-08 03:20:00,
2013-01-08 04:25:00,50.2,36.8,30.23,ENE,65,5.0,5.0,60,0.00,CLR,FEW,0.00,0.0,WeatherDisplay:10.37,2013-01-08 03:25:00,
2013-01-08 04:30:00,50.3,36.5,30.23,ENE,67,4.6,4.6,59,0.00,CLR,FEW,0.00,0.0,WeatherDisplay:10.37,2013-01-08 03:30:00,
2013-01-08 04:35:00,50.3,36.5,30.23,ENE,63,3.5,3.5,59,0.00,CLR,FEW,0.00,0.0,WeatherDisplay:10.37,2013-01-08 03:35:00,
2013-01-08 04:40:00,50.2,36.4,30.23,ENE,63,3.5,3.5,59,0.00,CLR,FEW,0.00,0.0,WeatherDisplay:10.37,2013-01-08 03:40:00,
2013-01-08 04:45:00,50.1,36.3,30.23,NE,49,2.3,2.3,59,0.00,CLR,FEW,0.00,0.0,WeatherDisplay:10.37,2013-01-08 03:45:00,
2013-01-08 04:50:00,50.0,36.2,30.23,ENE,63,4.0,4.0,59,0.00,CLR,FEW,0.00,0.0,WeatherDisplay:10.37,2013-01-08 03:50:00,
2013-01-08 04:55:00,50.1,36.3,30.23,ENE,78,4.0,4.0,59,0.00,CLR,FEW,0.00,0.0,WeatherDisplay:10.37,2013-01-08 03:55:00,
2013-01-08 05:00:00,50.2,36.4,30.23,ENE,61,3.5,3.5,59,0.00,CLR,FEW,0.00,0.0,WeatherDisplay:10.37,2013-01-08 04:00:00,
2013-01-08 05:05:00,50.2,36.4,30.23,East,82,2.3,2.3,59,0.00,CLR,FEW,0.00,0.0,WeatherDisplay:10.37,2013-01-08 04:05:00,
2013-01-08 05:10:00,50.3,36.5,30.23,ENE,74,5.8,5.8,59,0.00,CLR,FEW,0.00,0.0,WeatherDisplay:10.37,2013-01-08 04:10:00,
2013-01-08 05:15:00,50.4,36.6,30.23,ENE,76,2.3,2.3,59,0.00,CLR,FEW,0.00,0.0,WeatherDisplay:10.37,2013-01-08 04:15:00,
2013-01-08 05:20:00,50.3,36.5,30.23,ENE,69,3.5,3.5,59,0.00,CLR,FEW,0.00,0.0,WeatherDisplay:10.37,2013-01-08 04:20:00,
2013-01-08 05:25:00,50.2,36.8,30.23,ENE,67,5.0,5.0,60,0.00,CLR,FEW,0.00,0.0,WeatherDisplay:10.37,2013-01-08 04:25:00,
2013-01-08 05:30:00,50.1,36.7,30.23,ENE,67,4.6,4.6,60,0.00,CLR,FEW,0.00,0.0,WeatherDisplay:10.37,2013-01-08 04:30:00,
2013-01-08 05:35:00,50.1,36.7,30.23,ENE,76,4.6,4.6,60,0.00,CLR,FEW,0.00,0.0,WeatherDisplay:10.37,2013-01-08 04:35:00,
2013-01-08 05:40:00,50.1,36.7,30.24,East,80,3.5,3.5,60,0.00,CLR,FEW,0.00,0.0,WeatherDisplay:10.37,2013-01-08 04:40:00,
2013-01-08 05:45:00,50.0,36.2,30.24,East,83,3.5,3.5,59,0.00,CLR,FEW,0.00,0.0,WeatherDisplay:10.37,2013-01-08 04:45:00,
2013-01-08 05:50:00,49.9,36.6,30.24,East,83,3.5,3.5,60,0.00,CLR,FEW,0.00,0.0,WeatherDisplay:10.37,2013-01-08 04:50:00,
2013-01-08 05:55:00,49.8,36.0,30.24,East,82,4.0,4.0,59,0.00,CLR,FEW,0.00,0.0,WeatherDisplay:10.37,2013-01-08 04:55:00,
2013-01-08 06:00:00,49.9,36.1,30.24,East,82,1.2,1.2,59,0.00,CLR,FEW,0.00,0.0,WeatherDisplay:10.37,2013-01-08 05:00:00,
2013-01-08 06:01:00,49.9,35.7,30.24,East,82,1.2,1.2,58,0.00,CLR,FEW,0.00,0.0,WeatherDisplay:10.37,2013-01-08 05:01:00,
2013-01-08 06:03:00,49.9,35.7,30.24,East,82,0.0,0.0,58,0.00,CLR,FEW,0.00,0.0,WeatherDisplay:10.37,2013-01-08 05:03:00,
2013-01-08 06:08:00,49.9,35.7,30.24,East,82,3.5,3.5,58,0.00,CLR,FEW,0.00,0.0,WeatherDisplay:10.37,2013-01-08 05:08:00,
2013-01-08 06:13:00,49.9,35.7,30.24,East,82,2.0,2.0,58,0.00,CLR,FEW,0.00,0.0,WeatherDisplay:10.37,2013-01-08 05:13:00,
2013-01-08 06:18:00,49.8,35.6,30.25,East,82,2.3,2.3,58,0.00,CLR,FEW,0.00,0.0,WeatherDisplay:10.37,2013-01-08 05:18:00,
2013-01-08 06:23:00,49.7,35.9,30.25,East,82,1.2,1.2,59,0.00,CLR,FEW,0.00,0.0,WeatherDisplay:10.37,2013-01-08 05:23:00,
2013-01-08 06:28:00,49.5,35.8,30.25,East,82,2.3,2.3,59,0.00,CLR,FEW,0.00,0.0,WeatherDisplay:10.37,2013-01-08 05:28:00,
2013-01-08 06:33:00,49.3,36.0,30.25,East,82,2.0,2.0,60,0.00,CLR,FEW,0.00,0.0,WeatherDisplay:10.37,2013-01-08 05:33:00,
2013-01-08 06:38:00,49.3,36.0,30.25,East,82,3.5,3.5,60,0.00,CLR,FEW,0.00,0.0,WeatherDisplay:10.37,2013-01-08 05:38:00,
2013-01-08 06:43:00,49.3,35.6,30.25,East,82,3.5,3.5,59,0.00,CLR,FEW,0.00,0.0,WeatherDisplay:10.37,2013-01-08 05:43:00,
2013-01-08 06:48:00,49.4,35.7,30.25,ENE,78,3.5,3.5,59,0.00,CLR,FEW,0.00,0.0,WeatherDisplay:10.37,2013-01-08 05:48:00,
2013-01-08 06:53:00,49.5,35.8,30.25,East,80,3.5,3.5,59,0.00,CLR,FEW,0.00,0.0,WeatherDisplay:10.37,2013-01-08 05:53:00,
2013-01-08 06:58:00,49.4,35.7,30.25,East,80,3.5,3.5,59,0.00,CLR,FEW,0.00,0.0,WeatherDisplay:10.37,2013-01-08 05:58:00,
2013-01-08 07:03:00,49.2,35.0,30.25,East,80,3.5,3.5,58,0.00,OVC,FEW,0.00,0.0,WeatherDisplay:10.37,2013-01-08 06:03:00,
2013-01-08 07:08:00,49.2,35.0,30.25,East,80,3.5,3.5,58,0.00,OVC,FEW,0.00,0.0,WeatherDisplay:10.37,2013-01-08 06:08:00,
2013-01-08 07:13:00,49.2,35.0,30.25,East,81,2.3,2.3,58,0.00,OVC,FEW,0.00,0.0,WeatherDisplay:10.37,2013-01-08 06:13:00,
2013-01-08 07:18:00,49.2,35.5,30.24,East,81,3.5,3.5,59,0.00,OVC,FEW,0.00,0.0,WeatherDisplay:10.37,2013-01-08 06:18:00,
2013-01-08 07:23:00,49.1,35.4,30.24,East,80,2.3,2.3,59,0.00,OVC,FEW,0.00,0.0,WeatherDisplay:10.37,2013-01-08 06:23:00,
2013-01-08 07:28:00,48.8,35.5,30.25,East,81,2.3,2.3,60,0.00,OVC,FEW,0.00,0.0,WeatherDisplay:10.37,2013-01-08 06:28:00,
2013-01-08 07:33:00,48.6,35.3,30.25,East,81,2.3,2.3,60,0.00,OVC,FEW,0.00,0.0,WeatherDisplay:10.37,2013-01-08 06:33:00,
2013-01-08 07:38:00,48.5,35.7,30.25,East,81,0.0,0.0,61,0.00,OVC,FEW,0.00,0.0,WeatherDisplay:10.37,2013-01-08 06:38:00,
2013-01-08 07:43:00,48.4,35.6,30.25,SSW,207,4.6,4.6,61,0.00,OVC,FEW,0.00,0.0,WeatherDisplay:10.37,2013-01-08 06:43:00,
2013-01-08 07:48:00,48.5,36.1,30.25,SSW,197,4.0,4.0,62,0.00,OVC,FEW,0.00,0.0,WeatherDisplay:10.37,2013-01-08 06:48:00,
2013-01-08 07:53:00,48.8,36.4,30.26,South,184,3.5,3.5,62,0.00,OVC,FEW,0.00,0.0,WeatherDisplay:10.37,2013-01-08 06:53:00,
2013-01-08 07:58:00,49.1,37.4,30.26,South,181,5.8,5.8,64,0.00,OVC,FEW,0.00,0.0,WeatherDisplay:10.37,2013-01-08 06:58:00,
2013-01-08 08:03:00,49.4,38.1,30.26,South,180,3.5,3.5,65,0.00,OVC,FEW,0.00,0.0,WeatherDisplay:10.37,2013-01-08 07:03:00,
2013-01-08 08:08:00,49.5,39.0,30.26,South,180,4.0,4.0,67,0.00,OVC,FEW,0.00,0.0,WeatherDisplay:10.37,2013-01-08 07:08:00,
2013-01-08 08:13:00,49.7,39.2,30.26,South,180,3.5,3.5,67,0.00,OVC,FEW,0.00,0.0,WeatherDisplay:10.37,2013-01-08 07:13:00,
2013-01-08 08:18:00,49.7,39.2,30.26,South,180,3.5,3.5,67,0.00,OVC,FEW,0.00,0.0,WeatherDisplay:10.37,2013-01-08 07:18:00,
2013-01-08 08:23:00,49.7,39.6,30.26,SSW,194,3.5,3.5,68,0.00,OVC,FEW,0.00,0.0,WeatherDisplay:10.37,2013-01-08 07:23:00,
2013-01-08 08:28:00,49.8,39.7,30.26,SSW,194,3.0,3.0,68,0.00,OVC,FEW,0.00,0.0,WeatherDisplay:10.37,2013-01-08 07:28:00,
2013-01-08 08:33:00,49.8,40.0,30.26,South,190,2.3,2.3,69,0.00,OVC,FEW,0.00,0.0,WeatherDisplay:10.37,2013-01-08 07:33:00,
2013-01-08 08:38:00,49.8,40.0,30.27,South,188,4.0,4.0,69,0.00,OVC,FEW,0.00,0.0,WeatherDisplay:10.37,2013-01-08 07:38:00,
2013-01-08 08:43:00,49.9,40.1,30.27,SSW,194,4.6,4.6,69,0.00,OVC,FEW,0.00,0.0,WeatherDisplay:10.37,2013-01-08 07:43:00,
2013-01-08 08:48:00,50.1,40.3,30.27,South,183,3.5,3.5,69,0.00,OVC,FEW,0.00,0.0,WeatherDisplay:10.37,2013-01-08 07:48:00,
2013-01-08 08:53:00,50.4,40.6,30.27,South,183,0.0,0.0,69,0.00,OVC,FEW,0.00,0.0,WeatherDisplay:10.37,2013-01-08 07:53:00,
2013-01-08 08:58:00,50.7,40.9,30.27,South,184,1.2,0.0,69,0.00,OVC,FEW,0.00,0.0,WeatherDisplay:10.37,2013-01-08 07:58:00,
2013-01-08 09:03:00,50.8,41.0,30.27,South,184,3.5,3.5,69,0.00,OVC,FEW,0.00,0.0,WeatherDisplay:10.37,2013-01-08 08:03:00,
2013-01-08 09:08:00,50.9,41.1,30.28,South,184,0.0,0.0,69,0.00,OVC,FEW,0.00,0.0,WeatherDisplay:10.37,2013-01-08 08:08:00,
2013-01-08 09:13:00,50.8,41.4,30.28,South,184,0.0,0.0,70,0.00,OVC,FEW,0.00,0.0,WeatherDisplay:10.37,2013-01-08 08:13:00,
2013-01-08 09:18:00,50.8,41.7,30.28,South,184,0.0,0.0,71,0.00,OVC,FEW,0.00,0.0,WeatherDisplay:10.37,2013-01-08 08:18:00,
2013-01-08 09:23:00,50.8,41.7,30.28,South,184,1.2,1.2,71,0.00,OVC,FEW,0.00,0.0,WeatherDisplay:10.37,2013-01-08 08:23:00,
2013-01-08 09:28:00,50.7,41.6,30.28,South,184,0.0,0.0,71,0.00,OVC,FEW,0.00,0.0,WeatherDisplay:10.37,2013-01-08 08:28:00,
2013-01-08 09:33:00,50.9,41.8,30.28,South,184,1.2,1.2,71,0.00,OVC,FEW,0.00,0.0,WeatherDisplay:10.37,2013-01-08 08:33:00,
2013-01-08 09:38:00,51.0,41.9,30.29,South,184,0.0,0.0,71,0.00,OVC,FEW,0.00,0.0,WeatherDisplay:10.37,2013-01-08 08:38:00,
2013-01-08 09:43:00,50.9,42.2,30.29,South,184,0.0,0.0,72,0.00,OVC,FEW,0.00,0.0,WeatherDisplay:10.37,2013-01-08 08:43:00,
2013-01-08 09:48:00,51.2,42.5,30.28,South,184,0.0,0.0,72,0.00,OVC,FEW,0.00,0.0,WeatherDisplay:10.37,2013-01-08 08:48:00,
2013-01-08 09:53:00,51.1,42.4,30.28,South,184,1.2,1.2,72,0.00,OVC,FEW,0.00,0.0,WeatherDisplay:10.37,2013-01-08 08:53:00,
2013-01-08 09:58:00,51.3,42.6,30.28,South,184,2.3,2.3,72,0.00,OVC,FEW,0.00,0.0,WeatherDisplay:10.37,2013-01-08 08:58:00,
2013-01-08 10:03:00,51.6,42.5,30.29,South,184,3.5,3.5,71,0.00,OVC,FEW,0.00,0.0,WeatherDisplay:10.37,2013-01-08 09:03:00,
2013-01-08 10:08:00,52.1,43.0,30.29,South,184,0.0,0.0,71,0.00,OVC,FEW,0.00,0.0,WeatherDisplay:10.37,2013-01-08 09:08:00,
2013-01-08 10:13:00,52.8,43.7,30.29,South,184,1.2,1.2,71,0.00,OVC,FEW,0.00,0.0,WeatherDisplay:10.37,2013-01-08 09:13:00,
2013-01-08 10:18:00,53.4,43.9,30.29,South,184,2.3,2.3,70,0.00,OVC,FEW,0.00,0.0,WeatherDisplay:10.37,2013-01-08 09:18:00,
2013-01-08 10:23:00,53.8,43.5,30.29,South,184,1.2,1.2,68,0.00,OVC,FEW,0.00,0.0,WeatherDisplay:10.37,2013-01-08 09:23:00,
2013-01-08 10:28:00,53.8,43.5,30.29,South,184,2.3,2.3,68,0.00,OVC,FEW,0.00,0.0,WeatherDisplay:10.37,2013-01-08 09:28:00,
2013-01-08 10:33:00,53.9,43.2,30.29,South,184,1.2,0.0,67,0.00,OVC,FEW,0.00,0.0,WeatherDisplay:10.37,2013-01-08 09:33:00,
2013-01-08 10:38:00,53.9,43.2,30.29,South,184,1.2,0.0,67,0.00,OVC,FEW,0.00,0.0,WeatherDisplay:10.37,2013-01-08 09:38:00,
2013-01-08 10:43:00,53.7,42.6,30.29,South,184,1.2,1.2,66,0.00,OVC,FEW,0.00,0.0,WeatherDisplay:10.37,2013-01-08 09:43:00,
2013-01-08 10:48:00,53.4,42.7,30.29,South,184,1.2,1.2,67,0.00,OVC,FEW,0.00,0.0,WeatherDisplay:10.37,2013-01-08 09:48:00,
2013-01-08 10:53:00,53.2,42.5,30.29,South,184,0.0,0.0,67,0.00,OVC,FEW,0.00,0.0,WeatherDisplay:10.37,2013-01-08 09:53:00,
2013-01-08 10:58:00,53.2,42.9,30.29,South,184,0.0,0.0,68,0.00,OVC,FEW,0.00,0.0,WeatherDisplay:10.37,2013-01-08 09:58:00,
2013-01-08 11:03:00,53.4,42.7,30.29,South,184,0.0,0.0,67,0.00,OVC,FEW,0.00,0.0,WeatherDisplay:10.37,2013-01-08 10:03:00,
2013-01-08 11:08:00,53.4,43.1,30.29,South,184,0.0,0.0,68,0.00,OVC,FEW,0.00,0.0,WeatherDisplay:10.37,2013-01-08 10:08:00,
2013-01-08 11:13:00,53.3,42.6,30.29,South,184,1.2,1.2,67,0.00,OVC,FEW,0.00,0.0,WeatherDisplay:10.37,2013-01-08 10:13:00,
2013-01-08 11:18:00,53.4,41.9,30.29,South,184,1.2,0.0,65,0.00,OVC,FEW,0.00,0.0,WeatherDisplay:10.37,2013-01-08 10:18:00,
2013-01-08 11:23:00,53.3,41.8,30.29,South,184,3.5,3.5,65,0.00,OVC,FEW,0.00,0.0,WeatherDisplay:10.37,2013-01-08 10:23:00,
2013-01-08 11:28:00,53.6,41.7,30.28,South,184,0.0,0.0,64,0.00,OVC,FEW,0.00,0.0,WeatherDisplay:10.37,2013-01-08 10:28:00,
2013-01-08 11:33:00,54.0,41.7,30.28,South,184,1.2,0.0,63,0.00,OVC,FEW,0.00,0.0,WeatherDisplay:10.37,2013-01-08 10:33:00,
2013-01-08 11:38:00,53.9,42.0,30.28,South,184,0.0,0.0,64,0.00,OVC,FEW,0.00,0.0,WeatherDisplay:10.37,2013-01-08 10:38:00,
2013-01-08 11:43:00,54.0,41.7,30.29,South,184,1.2,1.2,63,0.00,OVC,FEW,0.00,0.0,WeatherDisplay:10.37,2013-01-08 10:43:00,
2013-01-08 11:48:00,54.3,42.4,30.28,South,184,2.3,2.3,64,0.00,OVC,FEW,0.00,0.0,WeatherDisplay:10.37,2013-01-08 10:48:00,
2013-01-08 11:54:00,54.1,42.2,30.28,South,184,2.3,2.3,64,0.00,OVC,FEW,0.00,0.0,WeatherDisplay:10.37,2013-01-08 10:54:00,
2013-01-08 11:59:00,54.0,41.7,30.28,ENE,66,1.2,1.2,63,0.00,OVC,FEW,0.00,0.0,WeatherDisplay:10.37,2013-01-08 10:59:00,
2013-01-08 12:04:00,54.0,42.1,30.28,ENE,66,3.5,3.5,64,0.00,OVC,FEW,0.00,0.0,WeatherDisplay:10.37,2013-01-08 11:04:00,
2013-01-08 12:09:00,54.0,42.1,30.28,ENE,66,1.2,0.0,64,0.00,OVC,FEW,0.00,0.0,WeatherDisplay:10.37,2013-01-08 11:09:00,
2013-01-08 12:14:00,53.9,42.0,30.28,ENE,66,1.0,1.0,64,0.00,OVC,FEW,0.00,0.0,WeatherDisplay:10.37,2013-01-08 11:14:00,
2013-01-08 12:19:00,53.9,42.0,30.27,ENE,66,0.0,0.0,64,0.00,OVC,FEW,0.00,0.0,WeatherDisplay:10.37,2013-01-08 11:19:00,
2013-01-08 12:24:00,54.2,42.3,30.27,ENE,66,1.2,1.2,64,0.00,OVC,FEW,0.00,0.0,WeatherDisplay:10.37,2013-01-08 11:24:00,
2013-01-08 12:29:00,54.6,42.7,30.27,ENE,66,1.2,0.0,64,0.00,OVC,FEW,0.00,0.0,WeatherDisplay:10.37,2013-01-08 11:29:00,
2013-01-08 12:34:00,54.9,42.5,30.26,ENE,66,3.5,3.5,63,0.00,OVC,FEW,0.00,0.0,WeatherDisplay:10.37,2013-01-08 11:34:00,
2013-01-08 12:39:00,55.1,43.1,30.26,ENE,67,3.5,3.5,64,0.00,OVC,FEW,0.00,0.0,WeatherDisplay:10.37,2013-01-08 11:39:00,
2013-01-08 12:44:00,55.9,43.9,30.25,WSW,254,3.5,3.5,64,0.00,OVC,FEW,0.00,0.0,WeatherDisplay:10.37,2013-01-08 11:44:00,
2013-01-08 12:49:00,56.0,43.6,30.25,West,275,3.5,3.5,63,0.00,OVC,FEW,0.00,0.0,WeatherDisplay:10.37,2013-01-08 11:49:00,
2013-01-08 12:54:00,56.1,43.7,30.25,West,275,2.3,2.3,63,0.00,OVC,FEW,0.00,0.0,WeatherDisplay:10.37,2013-01-08 11:54:00,
2013-01-08 12:59:00,55.7,43.3,30.26,West,281,3.5,3.5,63,0.00,OVC,FEW,0.00,0.0,WeatherDisplay:10.37,2013-01-08 11:59:00,
2013-01-08 13:04:00,55.5,43.1,30.25,West,273,3.5,3.5,63,0.00,OVC,FEW,0.00,0.0,WeatherDisplay:10.37,2013-01-08 12:04:00,
2013-01-08 13:09:00,55.4,43.4,30.26,West,273,2.3,2.3,64,0.00,OVC,FEW,0.00,0.0,WeatherDisplay:10.37,2013-01-08 12:09:00,
2013-01-08 13:14:00,55.3,43.3,30.25,West,273,1.2,1.2,64,0.00,OVC,FEW,0.00,0.0,WeatherDisplay:10.37,2013-01-08 12:14:00,
2013-01-08 13:19:00,55.1,43.1,30.25,West,273,0.0,0.1,64,0.00,OVC,FEW,0.00,0.0,WeatherDisplay:10.37,2013-01-08 12:19:00,
2013-01-08 13:24:00,54.9,42.9,30.25,West,273,2.3,2.3,64,0.00,OVC,FEW,0.00,0.0,WeatherDisplay:10.37,2013-01-08 12:24:00,
2013-01-08 13:29:00,54.9,42.9,30.25,West,273,1.2,0.0,64,0.00,OVC,FEW,0.00,0.0,WeatherDisplay:10.37,2013-01-08 12:29:00,
2013-01-08 13:34:00,54.7,42.8,30.25,West,273,0.0,0.0,64,0.00,OVC,FEW,0.00,0.0,WeatherDisplay:10.37,2013-01-08 12:34:00,
2013-01-08 13:39:00,54.6,42.7,30.25,West,273,0.0,0.0,64,0.00,OVC,FEW,0.00,0.0,WeatherDisplay:10.37,2013-01-08 12:39:00,
2013-01-08 13:44:00,54.6,43.1,30.25,West,273,1.2,0.0,65,0.00,OVC,FEW,0.00,0.0,WeatherDisplay:10.37,2013-01-08 12:44:00,
2013-01-08 13:49:00,54.6,43.1,30.25,West,273,0.0,0.1,65,0.00,OVC,FEW,0.00,0.0,WeatherDisplay:10.37,2013-01-08 12:49:00,
2013-01-08 13:54:00,54.5,43.0,30.25,West,273,0.0,0.0,65,0.00,OVC,FEW,0.00,0.0,WeatherDisplay:10.37,2013-01-08 12:54:00,
2013-01-08 13:59:00,54.6,43.1,30.25,West,273,1.2,1.2,65,0.00,OVC,FEW,0.00,0.0,WeatherDisplay:10.37,2013-01-08 12:59:00,
2013-01-08 14:04:00,54.5,43.0,30.25,West,273,0.0,0.0,65,0.00,OVC,FEW,0.00,0.0,WeatherDisplay:10.37,2013-01-08 13:04:00,
2013-01-08 14:09:00,54.4,42.9,30.24,West,273,0.0,0.0,65,0.00,OVC,FEW,0.00,0.0,WeatherDisplay:10.37,2013-01-08 13:09:00,
2013-01-08 14:14:00,54.5,43.8,30.25,West,273,2.3,2.3,67,0.00,OVC,FEW,0.00,0.0,WeatherDisplay:10.37,2013-01-08 13:14:00,
2013-01-08 14:19:00,54.5,43.8,30.25,West,273,2.3,2.3,67,0.00,OVC,FEW,0.00,0.0,WeatherDisplay:10.37,2013-01-08 13:19:00,
2013-01-08 14:24:00,54.5,43.8,30.25,West,273,0.0,0.0,67,0.00,OVC,FEW,0.00,0.0,WeatherDisplay:10.37,2013-01-08 13:24:00,
2013-01-08 14:29:00,54.6,44.2,30.25,West,273,0.0,0.0,68,0.00,OVC,FEW,0.00,0.0,WeatherDisplay:10.37,2013-01-08 13:29:00,
2013-01-08 14:34:00,54.7,44.3,30.25,West,273,0.0,0.0,68,0.00,OVC,FEW,0.00,0.0,WeatherDisplay:10.37,2013-01-08 13:34:00,
2013-01-08 14:39:00,54.7,44.3,30.25,West,273,0.0,0.0,68,0.00,OVC,FEW,0.00,0.0,WeatherDisplay:10.37,2013-01-08 13:39:00,
2013-01-08 14:44:00,54.6,43.9,30.25,West,273,1.2,0.0,67,0.00,OVC,FEW,0.00,0.0,WeatherDisplay:10.37,2013-01-08 13:44:00,
2013-01-08 14:49:00,54.6,44.2,30.25,West,273,0.0,0.0,68,0.00,OVC,FEW,0.00,0.0,WeatherDisplay:10.37,2013-01-08 13:49:00,
2013-01-08 14:54:00,54.5,44.2,30.25,West,273,0.0,0.0,68,0.00,OVC,FEW,0.00,0.0,WeatherDisplay:10.37,2013-01-08 13:54:00,
2013-01-08 14:59:00,54.5,44.2,30.25,West,273,1.2,0.0,68,0.00,OVC,FEW,0.00,0.0,WeatherDisplay:10.37,2013-01-08 13:59:00,
2013-01-08 15:04:00,54.3,44.0,30.25,West,273,0.0,0.0,68,0.00,OVC,FEW,0.00,0.0,WeatherDisplay:10.37,2013-01-08 14:04:00,
2013-01-08 15:09:00,54.2,43.9,30.25,West,273,0.0,0.0,68,0.00,OVC,FEW,0.00,0.0,WeatherDisplay:10.37,2013-01-08 14:09:00,
2013-01-08 15:14:00,54.2,44.2,30.24,West,273,0.0,0.1,69,0.00,OVC,FEW,0.00,0.0,WeatherDisplay:10.37,2013-01-08 14:14:00,
2013-01-08 15:19:00,54.5,44.5,30.24,West,273,0.0,0.0,69,0.00,OVC,FEW,0.00,0.0,WeatherDisplay:10.37,2013-01-08 14:19:00,
2013-01-08 15:24:00,54.6,45.0,30.24,West,273,3.0,3.0,70,0.00,OVC,FEW,0.00,0.0,WeatherDisplay:10.37,2013-01-08 14:24:00,
2013-01-08 15:29:00,54.7,45.1,30.24,West,273,2.3,2.3,70,0.00,OVC,FEW,0.00,0.0,WeatherDisplay:10.37,2013-01-08 14:29:00,
2013-01-08 15:34:00,54.6,44.6,30.24,West,273,1.2,0.0,69,0.00,OVC,FEW,0.00,0.0,WeatherDisplay:10.37,2013-01-08 14:34:00,
2013-01-08 15:39:00,54.4,44.4,30.24,West,273,0.0,0.0,69,0.00,OVC,FEW,0.00,0.0,WeatherDisplay:10.37,2013-01-08 14:39:00,
2013-01-08 15:44:00,54.3,44.7,30.25,West,273,2.3,2.3,70,0.00,OVC,FEW,0.00,0.0,WeatherDisplay:10.37,2013-01-08 14:44:00,
2013-01-08 15:49:00,54.3,44.7,30.25,West,273,0.0,0.0,70,0.00,OVC,FEW,0.00,0.0,WeatherDisplay:10.37,2013-01-08 14:49:00,
2013-01-08 15:54:00,54.4,44.8,30.24,West,273,0.0,0.0,70,0.00,OVC,FEW,0.00,0.0,WeatherDisplay:10.37,2013-01-08 14:54:00,
2013-01-08 15:59:00,54.3,44.7,30.24,West,273,1.2,0.0,70,0.00,OVC,FEW,0.00,0.0,WeatherDisplay:10.37,2013-01-08 14:59:00,
2013-01-08 16:04:00,54.2,44.6,30.25,West,273,0.0,0.0,70,0.00,OVC,FEW,0.00,0.0,WeatherDisplay:10.37,2013-01-08 15:04:00,
2013-01-08 16:09:00,54.0,44.4,30.24,West,273,1.2,1.2,70,0.00,OVC,FEW,0.00,0.0,WeatherDisplay:10.37,2013-01-08 15:09:00,
2013-01-08 16:14:00,53.6,44.4,30.24,West,273,1.2,1.2,71,0.00,OVC,FEW,0.00,0.0,WeatherDisplay:10.37,2013-01-08 15:14:00,
2013-01-08 16:19:00,53.1,44.3,30.24,West,273,0.0,0.0,72,0.00,OVC,FEW,0.00,0.0,WeatherDisplay:10.37,2013-01-08 15:19:00,
2013-01-08 16:24:00,52.7,44.3,30.24,West,273,1.0,0.0,73,0.00,OVC,FEW,0.00,0.0,WeatherDisplay:10.37,2013-01-08 15:24:00,
2013-01-08 16:29:00,52.3,43.9,30.24,West,273,0.0,0.0,73,0.00,OVC,FEW,0.00,0.0,WeatherDisplay:10.37,2013-01-08 15:29:00,
2013-01-08 16:34:00,52.0,44.0,30.24,West,273,0.0,0.0,74,0.00,OVC,FEW,0.00,0.0,WeatherDisplay:10.37,2013-01-08 15:34:00,
2013-01-08 16:39:00,51.7,44.0,30.24,West,273,0.0,0.0,75,0.00,OVC,FEW,0.00,0.0,WeatherDisplay:10.37,2013-01-08 15:39:00,
2013-01-08 16:44:00,51.5,44.2,30.24,West,272,0.0,0.0,76,0.00,OVC,FEW,0.00,0.0,WeatherDisplay:10.37,2013-01-08 15:44:00,
2013-01-08 16:49:00,51.4,44.1,30.24,West,272,2.3,2.3,76,0.00,OVC,FEW,0.00,0.0,WeatherDisplay:10.37,2013-01-08 15:49:00,
2013-01-08 16:54:00,51.2,44.2,30.24,West,272,2.0,2.0,77,0.00,OVC,FEW,0.00,0.0,WeatherDisplay:10.37,2013-01-08 15:54:00,
2013-01-08 16:59:00,51.1,44.5,30.24,West,272,1.2,1.2,78,0.00,OVC,FEW,0.00,0.0,WeatherDisplay:10.37,2013-01-08 15:59:00,
2013-01-08 17:04:00,51.0,44.4,30.24,West,271,0.0,0.0,78,0.00,CLR,FEW,0.00,0.0,WeatherDisplay:10.37,2013-01-08 16:04:00,
2013-01-08 17:09:00,50.9,44.6,30.24,South,174,2.3,2.3,79,0.00,CLR,FEW,0.00,0.0,WeatherDisplay:10.37,2013-01-08 16:09:00,
2013-01-08 17:14:00,50.9,44.9,30.24,South,174,3.5,3.5,80,0.00,CLR,FEW,0.00,0.0,WeatherDisplay:10.37,2013-01-08 16:14:00,
2013-01-08 17:19:00,50.8,44.9,30.24,SSE,168,0.0,0.0,80,0.00,CLR,FEW,0.00,0.0,WeatherDisplay:10.37,2013-01-08 16:19:00,
2013-01-08 17:24:00,50.8,45.2,30.24,SSW,194,4.6,4.6,81,0.00,CLR,FEW,0.00,0.0,WeatherDisplay:10.37,2013-01-08 16:24:00,
2013-01-08 17:29:00,50.8,45.2,30.23,South,191,4.6,4.6,81,0.00,CLR,FEW,0.00,0.0,WeatherDisplay:10.37,2013-01-08 16:29:00,
2013-01-08 17:34:00,50.8,45.5,30.23,South,190,3.0,3.0,82,0.00,CLR,FEW,0.00,0.0,WeatherDisplay:10.37,2013-01-08 16:34:00,
2013-01-08 17:39:00,50.8,45.5,30.23,South,187,4.6,4.6,82,0.00,CLR,FEW,0.00,0.0,WeatherDisplay:10.37,2013-01-08 16:39:00,
2013-01-08 17:44:00,50.9,45.6,30.23,SSW,197,3.5,3.5,82,0.00,CLR,FEW,0.00,0.0,WeatherDisplay:10.37,2013-01-08 16:44:00,
2013-01-08 17:49:00,50.9,45.9,30.23,SSW,196,3.5,3.5,83,0.00,CLR,FEW,0.00,0.0,WeatherDisplay:10.37,2013-01-08 16:49:00,
2013-01-08 17:54:00,50.9,45.9,30.23,SSW,196,3.5,3.5,83,0.00,CLR,FEW,0.00,0.0,WeatherDisplay:10.37,2013-01-08 16:54:00,
2013-01-08 17:59:00,50.8,46.1,30.23,SSW,197,4.0,4.0,84,0.00,CLR,FEW,0.00,0.0,WeatherDisplay:10.37,2013-01-08 16:59:00,
2013-01-08 18:04:00,50.8,46.1,30.23,SSW,199,3.5,3.5,84,0.00,CLR,FEW,0.00,0.0,WeatherDisplay:10.37,2013-01-08 17:04:00,
2013-01-08 18:09:00,50.9,46.2,30.23,SSW,196,5.0,5.0,84,0.00,CLR,FEW,0.00,0.0,WeatherDisplay:10.37,2013-01-08 17:09:00,
2013-01-08 18:14:00,50.9,46.2,30.23,SSW,196,3.5,3.5,84,0.00,CLR,FEW,0.00,0.0,WeatherDisplay:10.37,2013-01-08 17:14:00,
2013-01-08 18:19:00,50.7,46.4,30.23,SSW,196,3.5,3.5,85,0.00,CLR,FEW,0.00,0.0,WeatherDisplay:10.37,2013-01-08 17:19:00,
2013-01-08 18:24:00,50.6,46.3,30.23,SSW,196,4.6,4.6,85,0.00,CLR,FEW,0.00,0.0,WeatherDisplay:10.37,2013-01-08 17:24:00,
2013-01-08 18:29:00,50.6,46.3,30.23,SSW,196,3.5,3.5,85,0.00,CLR,FEW,0.00,0.0,WeatherDisplay:10.37,2013-01-08 17:29:00,
2013-01-08 18:34:00,50.5,46.2,30.23,SSW,196,4.0,4.0,85,0.00,CLR,FEW,0.00,0.0,WeatherDisplay:10.37,2013-01-08 17:34:00,
2013-01-08 18:39:00,50.3,46.0,30.23,SSW,196,3.5,3.5,85,0.00,CLR,FEW,0.00,0.0,WeatherDisplay:10.37,2013-01-08 17:39:00,
2013-01-08 18:44:00,50.2,46.2,30.23,SSW,196,3.5,3.5,86,0.00,CLR,FEW,0.00,0.0,WeatherDisplay:10.37,2013-01-08 17:44:00,
2013-01-08 18:49:00,50.2,46.2,30.23,SSW,196,3.5,3.5,86,0.00,CLR,FEW,0.00,0.0,WeatherDisplay:10.37,2013-01-08 17:49:00,
2013-01-08 18:54:00,50.3,46.3,30.23,SSW,196,3.5,3.5,86,0.00,CLR,FEW,0.00,0.0,WeatherDisplay:10.37,2013-01-08 17:54:00,
2013-01-08 18:59:00,50.3,46.3,30.23,SSW,196,3.5,3.5,86,0.00,CLR,FEW,0.00,0.0,WeatherDisplay:10.37,2013-01-08 17:59:00,
2013-01-08 19:04:00,50.3,46.6,30.23,SSW,196,3.5,3.5,87,0.00,CLR,FEW,0.00,0.0,WeatherDisplay:10.37,2013-01-08 18:04:00,
2013-01-08 19:09:00,50.3,46.6,30.23,SSW,196,3.5,3.5,87,0.00,CLR,FEW,0.00,0.0,WeatherDisplay:10.37,2013-01-08 18:09:00,
2013-01-08 19:14:00,50.2,46.5,30.23,SSW,196,3.5,3.5,87,0.00,CLR,FEW,0.00,0.0,WeatherDisplay:10.37,2013-01-08 18:14:00,
2013-01-08 19:19:00,50.1,46.4,30.23,SSW,196,3.5,3.5,87,0.00,CLR,FEW,0.00,0.0,WeatherDisplay:10.37,2013-01-08 18:19:00,
2013-01-08 19:24:00,50.1,46.4,30.23,SSW,196,2.3,2.3,87,0.00,CLR,FEW,0.00,0.0,WeatherDisplay:10.37,2013-01-08 18:24:00,
2013-01-08 19:29:00,50.0,46.3,30.22,SSW,196,3.5,3.5,87,0.00,CLR,FEW,0.00,0.0,WeatherDisplay:10.37,2013-01-08 18:29:00,
2013-01-08 19:34:00,50.0,46.3,30.22,SSW,196,2.3,2.3,87,0.00,CLR,FEW,0.00,0.0,WeatherDisplay:10.37,2013-01-08 18:34:00,
2013-01-08 19:39:00,49.9,46.2,30.23,SSW,196,0.0,0.0,87,0.00,CLR,FEW,0.00,0.0,WeatherDisplay:10.37,2013-01-08 18:39:00,
2013-01-08 19:44:00,49.9,46.2,30.22,SSW,196,2.3,2.3,87,0.00,CLR,FEW,0.00,0.0,WeatherDisplay:10.37,2013-01-08 18:44:00,
2013-01-08 19:49:00,49.8,46.1,30.23,SSW,196,2.3,2.3,87,0.00,CLR,FEW,0.00,0.0,WeatherDisplay:10.37,2013-01-08 18:49:00,
2013-01-08 19:54:00,49.8,46.1,30.22,SSW,196,1.2,0.0,87,0.00,CLR,FEW,0.00,0.0,WeatherDisplay:10.37,2013-01-08 18:54:00,
2013-01-08 19:59:00,49.8,46.1,30.22,SSW,196,1.2,0.0,87,0.00,CLR,FEW,0.00,0.0,WeatherDisplay:10.37,2013-01-08 18:59:00,
2013-01-08 20:04:00,49.8,46.1,30.22,SSW,196,2.3,2.3,87,0.00,CLR,FEW,0.00,0.0,WeatherDisplay:10.37,2013-01-08 19:04:00,
2013-01-08 20:09:00,49.7,46.0,30.22,SSW,196,0.0,0.0,87,0.00,CLR,FEW,0.00,0.0,WeatherDisplay:10.37,2013-01-08 19:09:00,
2013-01-08 20:14:00,49.7,46.0,30.22,SSW,196,2.3,2.3,87,0.00,CLR,FEW,0.00,0.0,WeatherDisplay:10.37,2013-01-08 19:14:00,
2013-01-08 20:19:00,49.6,45.9,30.23,SSW,196,0.0,0.0,87,0.00,CLR,FEW,0.00,0.0,WeatherDisplay:10.37,2013-01-08 19:19:00,
2013-01-08 20:24:00,49.5,45.8,30.23,SSW,196,1.2,0.0,87,0.00,CLR,FEW,0.00,0.0,WeatherDisplay:10.37,2013-01-08 19:24:00,
2013-01-08 20:29:00,49.3,45.6,30.22,SSW,196,0.0,0.0,87,0.00,CLR,FEW,0.00,0.0,WeatherDisplay:10.37,2013-01-08 19:29:00,
2013-01-08 20:34:00,49.3,45.6,30.22,SSW,196,1.2,0.0,87,0.00,CLR,FEW,0.00,0.0,WeatherDisplay:10.37,2013-01-08 19:34:00,
2013-01-08 20:39:00,49.2,45.5,30.23,SSW,196,0.0,0.0,87,0.00,CLR,FEW,0.00,0.0,WeatherDisplay:10.37,2013-01-08 19:39:00,
2013-01-08 20:44:00,49.2,45.5,30.23,SSW,196,0.0,0.0,87,0.00,CLR,FEW,0.00,0.0,WeatherDisplay:10.37,2013-01-08 19:44:00,
2013-01-08 20:49:00,49.2,45.5,30.23,SSW,196,1.2,0.0,87,0.00,CLR,FEW,0.00,0.0,WeatherDisplay:10.37,2013-01-08 19:49:00,
2013-01-08 20:54:00,49.2,45.5,30.22,SSW,196,0.0,0.0,87,0.00,CLR,FEW,0.00,0.0,WeatherDisplay:10.37,2013-01-08 19:54:00,
2013-01-08 20:59:00,49.2,45.5,30.22,SSW,196,1.2,1.2,87,0.00,CLR,FEW,0.00,0.0,WeatherDisplay:10.37,2013-01-08 19:59:00,
2013-01-08 21:04:00,49.2,45.8,30.22,SSW,196,0.0,0.0,88,0.00,CLR,FEW,0.00,0.0,WeatherDisplay:10.37,2013-01-08 20:04:00,
2013-01-08 21:09:00,49.2,45.8,30.22,SSW,196,1.2,0.0,88,0.00,CLR,FEW,0.00,0.0,WeatherDisplay:10.37,2013-01-08 20:09:00,
2013-01-08 21:14:00,49.1,45.7,30.22,SSW,196,3.5,3.5,88,0.00,CLR,FEW,0.00,0.0,WeatherDisplay:10.37,2013-01-08 20:14:00,
2013-01-08 21:19:00,49.1,45.7,30.22,SSW,196,3.5,3.5,88,0.00,CLR,FEW,0.00,0.0,WeatherDisplay:10.37,2013-01-08 20:19:00,
2013-01-08 21:24:00,49.0,45.6,30.22,SSW,196,2.3,2.3,88,0.00,CLR,FEW,0.00,0.0,WeatherDisplay:10.37,2013-01-08 20:24:00,
2013-01-08 21:29:00,48.9,45.5,30.22,SSW,196,2.3,2.3,88,0.00,CLR,FEW,0.00,0.0,WeatherDisplay:10.37,2013-01-08 20:29:00,
2013-01-08 21:34:00,48.9,45.5,30.22,SSW,196,1.2,1.2,88,0.00,CLR,FEW,0.00,0.0,WeatherDisplay:10.37,2013-01-08 20:34:00,
2013-01-08 21:39:00,48.8,45.4,30.21,SSW,196,3.5,3.5,88,0.00,CLR,FEW,0.00,0.0,WeatherDisplay:10.37,2013-01-08 20:39:00,
2013-01-08 21:44:00,48.8,45.4,30.21,SSW,196,3.5,3.5,88,0.00,CLR,FEW,0.00,0.0,WeatherDisplay:10.37,2013-01-08 20:44:00,
2013-01-08 21:49:00,48.9,45.8,30.22,SSW,196,3.5,3.5,89,0.00,CLR,FEW,0.00,0.0,WeatherDisplay:10.37,2013-01-08 20:49:00,
2013-01-08 21:54:00,49.1,46.0,30.22,SSW,196,2.3,2.3,89,0.00,CLR,FEW,0.00,0.0,WeatherDisplay:10.37,2013-01-08 20:54:00,
2013-01-08 21:59:00,49.2,46.1,30.22,SSW,196,2.3,2.3,89,0.00,CLR,FEW,0.00,0.0,WeatherDisplay:10.37,2013-01-08 20:59:00,
2013-01-08 22:04:00,49.1,46.0,30.22,SSW,196,2.3,2.3,89,0.00,CLR,FEW,0.00,0.0,WeatherDisplay:10.37,2013-01-08 21:04:00,
2013-01-08 22:09:00,49.1,45.7,30.22,SSW,196,3.5,3.5,88,0.00,CLR,FEW,0.00,0.0,WeatherDisplay:10.37,2013-01-08 21:09:00,
2013-01-08 22:14:00,49.1,46.0,30.22,SSW,196,1.0,0.0,89,0.00,CLR,FEW,0.00,0.0,WeatherDisplay:10.37,2013-01-08 21:14:00,
2013-01-08 22:19:00,49.3,46.2,30.22,SSW,196,0.0,0.1,89,0.00,CLR,FEW,0.00,0.0,WeatherDisplay:10.37,2013-01-08 21:19:00,
2013-01-08 22:24:00,49.5,46.4,30.22,SSW,196,1.2,1.2,89,0.00,CLR,FEW,0.00,0.0,WeatherDisplay:10.37,2013-01-08 21:24:00,
2013-01-08 22:29:00,49.8,46.7,30.22,SSW,196,1.2,0.0,89,0.00,CLR,FEW,0.00,0.0,WeatherDisplay:10.37,2013-01-08 21:29:00,
2013-01-08 22:34:00,50.0,46.6,30.22,SSW,196,0.0,0.0,88,0.00,CLR,FEW,0.00,0.0,WeatherDisplay:10.37,2013-01-08 21:34:00,
2013-01-08 22:39:00,50.0,46.6,30.22,SSW,196,1.2,0.0,88,0.00,CLR,FEW,0.00,0.0,WeatherDisplay:10.37,2013-01-08 21:39:00,
2013-01-08 22:44:00,50.1,46.7,30.22,SSW,196,0.0,0.0,88,0.00,CLR,FEW,0.00,0.0,WeatherDisplay:10.37,2013-01-08 21:44:00,
2013-01-08 22:49:00,50.2,46.5,30.22,SSW,196,0.0,0.0,87,0.00,CLR,FEW,0.00,0.0,WeatherDisplay:10.37,2013-01-08 21:49:00,
2013-01-08 22:54:00,50.2,46.5,30.22,SSW,196,1.2,1.2,87,0.00,CLR,FEW,0.00,0.0,WeatherDisplay:10.37,2013-01-08 21:54:00,
2013-01-08 22:59:00,50.4,46.4,30.22,SSW,196,2.3,2.3,86,0.00,CLR,FEW,0.00,0.0,WeatherDisplay:10.37,2013-01-08 21:59:00,
2013-01-08 23:04:00,50.5,46.5,30.22,SSW,196,1.2,1.2,86,0.00,CLR,FEW,0.00,0.0,WeatherDisplay:10.37,2013-01-08 22:04:00,
2013-01-08 23:09:00,50.6,46.6,30.22,SSW,196,1.2,0.0,86,0.00,CLR,FEW,0.00,0.0,WeatherDisplay:10.37,2013-01-08 22:09:00,
2013-01-08 23:14:00,50.6,46.3,30.21,SSW,196,1.2,0.0,85,0.00,CLR,FEW,0.00,0.0,WeatherDisplay:10.37,2013-01-08 22:14:00,
2013-01-08 23:19:00,50.6,46.3,30.21,SSW,196,3.5,3.5,85,0.00,CLR,FEW,0.00,0.0,WeatherDisplay:10.37,2013-01-08 22:19:00,
2013-01-08 23:24:00,50.5,46.2,30.22,SSW,196,2.3,2.3,85,0.00,CLR,FEW,0.00,0.0,WeatherDisplay:10.37,2013-01-08 22:24:00,
2013-01-08 23:29:00,50.4,45.7,30.22,SSW,196,2.3,2.3,84,0.00,CLR,FEW,0.00,0.0,WeatherDisplay:10.37,2013-01-08 22:29:00,
2013-01-08 23:34:00,50.5,45.8,30.22,SSW,196,2.3,2.3,84,0.00,CLR,FEW,0.00,0.0,WeatherDisplay:10.37,2013-01-08 22:34:00,
2013-01-08 23:39:00,50.5,45.8,30.22,SSW,196,3.5,3.5,84,0.00,CLR,FEW,0.00,0.0,WeatherDisplay:10.37,2013-01-08 22:39:00,
2013-01-08 23:44:00,50.6,45.9,30.22,SSW,196,1.0,0.0,84,0.00,CLR,FEW,0.00,0.0,WeatherDisplay:10.37,2013-01-08 22:44:00,
2013-01-08 23:49:00,50.7,46.0,30.22,SSW,196,0.0,0.0,84,0.00,CLR,FEW,0.00,0.0,WeatherDisplay:10.37,2013-01-08 22:49:00,
2013-01-08 23:54:00,50.9,46.2,30.21,SSW,196,0.0,0.0,84,0.00,CLR,FEW,0.00,0.0,WeatherDisplay:10.37,2013-01-08 22:54:00,
2013-01-08 23:59:00,51.0,46.3,30.21,SSW,196,0.0,0.0,84,0.00,CLR,FEW,0.00,0.0,WeatherDisplay:10.37,2013-01-08 22:59:00,